Regional Weather Roundup
Issued by NWS Cleveland, OH

Home | Current Version | Previous Version | Graphics & Text | Print | Product List | Glossary On
Versions: 1 2 3 4 5 6 7 8 9 10 11 12 13 14 15 16 17 18 19 20 21 22 23 24 25 26 27 28 29 30 31 32 33 34 35 36 37 38 39 40 41 42 43 44 45 46 47 48 49 50
550
ASUS41 KCLE 250902
RWRCLE
OHIO REGIONAL WEATHER ROUNDUP
NATIONAL WEATHER SERVICE CLEVELAND, OH
400 AM EST SAT NOV 25 2017

NOTE: "FAIR" INDICATES FEW OR NO CLOUDS BELOW 12,000 FEET WITH NO
SIGNIFICANT WEATHER AND/OR OBSTRUCTIONS TO VISIBILITY.

OHZ001>008-015>018-024>027-034-035-043-044-251000-
   NORTHWEST OHIO

CITY           SKY/WX    TMP DP  RH WIND       PRES   REMARKS
DEFIANCE       CLOUDY    48  34  58 W8        29.62R
FINDLAY        CLOUDY    51  32  48 SW15G23   29.63R
TOLEDO EXPRESS CLOUDY    50  35  56 SW14G21   29.60R
TOLEDO EXEC    CLOUDY    47  34  60 SW13      29.61S
LIMA           CLOUDY    49  33  54 SW17      29.65S
$$

OHZ009>014-019>023-028>033-038-089-251000-
   NORTHEAST OHIO

CITY           SKY/WX    TMP DP  RH WIND       PRES   REMARKS
CLE-HOPKINS    CLOUDY    51  29  42 SW10      29.64S
CLE-LAKEFRONT  PTCLDY    52  27  38 S13       29.60S
CUY CO. ARPT   NOT AVBL
LORAIN-ELYRIA  CLOUDY    50  27  40 SW16      29.63S
ASHTABULA      MOCLDY    48  25  40 S10       29.62F
AKRON-CANTON   CLOUDY    48  24  39 SW12G21   29.66F
WOOSTER        PTCLDY    48  27  44 SW14      29.66F
MANSFIELD      MOCLDY    49  28  44 SW17G26   29.65F
YOUNGSTOWN     MOCLDY    50  25  37 SW12      29.65F
$$

OHZ042-051>053-060>062-070>072-077>081-251000-
  SOUTHWEST OHIO

CITY           SKY/WX    TMP DP  RH WIND       PRES   REMARKS
CINC-COVINGTON CLOUDY    50  30  46 SW8       29.75R
CINC-LUNKEN    CLOUDY    52  31  44 SW16      29.76S
HAMILTON       CLOUDY    51  30  44 VRB7      29.75R
DAYTON         MOCLDY    48  31  51 SW13      29.71R
WRIGHT-PAT AFB CLOUDY    50  26  39 SW15      29.71R
DAYTON GENERAL CLOUDY    50  28  42 SW13      29.72R
WILMINGTON     CLOUDY    49  32  52 SW16      29.73S
$$

OHZ036-037-039>041-045>050-054>059-063>069-073>076-082>088-251000-
  CENTRAL AND SOUTHEAST OHIO

CITY           SKY/WX    TMP DP  RH WIND       PRES   REMARKS
COLUMBUS       CLOUDY    48  30  49 SW6       29.72R
OSU AIRPORT    PTCLDY    48  31  51 SW9       29.71R
BOLTON FIELD   PTCLDY    48  32  54 SW13      29.71S
RICKENBACK AFB PTCLDY    47  31  53 SW10      29.72R
NEWARK         CLOUDY    51  28  41 SW12G20   29.70F
MARION         PTCLDY    47  29  49 SW12      29.68R
LANCASTER      PTCLDY    51  31  46 SW13G21   29.71F
ZANESVILLE     CLOUDY    47  28  47 SW6       29.71F
NEW PHILLY     NOT AVBL
$$




USA.gov is the U.S. government's official web portal to all federal, state and local government web resources and services.